Medford, OR

7:08 AM PDT on March 30, 2017 (GMT -0700)
Rogue Valley International-Medford

Weather History for KMFR - April, 2013

Change the Weather History Date:

Sunday, April 28, 2013

  Actual Average Record
Temperature  
Mean Temperature 60 °F 55 °F  
Max Temperature 77 °F 68 °F 96 °F (1926)
Min Temperature 43 °F 43 °F 26 °F (1967)
Degree Days  
Heating Degree Days 5 10  
Month to date heating degree days 301 347  
Since 1 July heating degree days 3852 3979  
Cooling Degree Days 0 0  
Month to date cooling degree days 2 0  
Year to date cooling degree days 2 0  
Growing Degree Days 10 (Base 50)    
Moisture  
Dew Point 38 °F    
Average Humidity 48    
Maximum Humidity 70    
Minimum Humidity 25    
Precipitation  
Precipitation 0.00 in 0.05 in 0.59 in (1948)
Month to date precipitation 1.04 1.30  
Year to date precipitation 3.05 7.45  
Snow  
Snow 0.00 in 0.00 in - ()
Month to date snowfall 0.0 0.1  
Since 1 July snowfall 1.7 4.2  
Snow Depth 0.00 in    
Sea Level Pressure  
Sea Level Pressure 30.18 in    
Wind  
Wind Speed 3 mph (North)    
Max Wind Speed 16 mph    
Max Gust Speed 20 mph    
Visibility 10 miles    
Events      
T = Trace of Precipitation, MM = Missing Value Source: NWS Daily Summary

Daily Weather History Graph

Daily Weather History Graph

Search for Another Location

Airport or City:

Trip Planner

Search our weather history database for the weather conditions in past years. The results will help you decide how hot, cold, wet, or windy it might be!

Date:

Astronomy

Apr. 28, 2013 Rise Set
Actual Time 6:10 AM PDT 8:08 PM PDT
Civil Twilight 5:39 AM PDT 8:38 PM PDT
Nautical Twilight 5:02 AM PDT 9:15 PM PDT
Astronomical Twilight 4:22 AM PDT 9:56 PM PDT
Moon 11:45 PM PDT (4/28) 8:30 AM PDT (4/28)
Length of Visible Light 14h 58m
Length of Day
13h 57m
Waning Gibbous, 88% of the Moon is Illuminated
Apr 28
Waning Gibbous
May 2
Last Quarter
May 9
New
May 17
First Quarter
May 24
Full

Hourly Weather History & Observations

Time (PDT) Temp. Dew Point Humidity Pressure Visibility Wind Dir Wind Speed Gust Speed Precip Events Conditions
12:53 AM 55.9 °F 37.0 °F 49% 30.21 in 10.0 mi SSW 3.5 mph - N/A   Clear
1:53 AM 55.0 °F 37.9 °F 53% 30.20 in 10.0 mi Calm Calm - N/A   Clear
2:53 AM 50.0 °F 37.0 °F 61% 30.20 in 10.0 mi Calm Calm - N/A   Clear
3:53 AM 50.0 °F 37.0 °F 61% 30.20 in 10.0 mi Calm Calm - N/A   Clear
4:53 AM 50.0 °F 37.9 °F 63% 30.22 in 10.0 mi Calm Calm - N/A   Clear
5:53 AM 44.6 °F 35.6 °F 71% 30.24 in 10.0 mi Calm Calm - N/A   Clear
6:53 AM 45.0 °F 36.0 °F 71% 30.24 in 10.0 mi Calm Calm - N/A   Clear
7:53 AM 48.9 °F 37.9 °F 66% 30.26 in 10.0 mi Calm Calm - N/A   Clear
8:53 AM 54.0 °F 39.0 °F 57% 30.25 in 10.0 mi NNE 3.5 mph - N/A   Clear
9:53 AM 59.0 °F 37.9 °F 46% 30.24 in 10.0 mi Calm Calm - N/A   Clear
10:53 AM 64.0 °F 35.1 °F 34% 30.23 in 10.0 mi NNE 4.6 mph - 0.01 in   Clear
11:53 AM 66.9 °F 30.0 °F 25% 30.22 in 10.0 mi Calm Calm - N/A   Clear
12:53 PM 69.1 °F 36.0 °F 30% 30.20 in 10.0 mi NW 4.6 mph - N/A   Partly Cloudy
1:53 PM 73.0 °F 37.0 °F 27% 30.17 in 10.0 mi NE 5.8 mph - N/A   Partly Cloudy
2:53 PM 75.0 °F 37.0 °F 25% 30.15 in 10.0 mi Variable 3.5 mph - N/A   Clear
3:53 PM 75.9 °F 37.0 °F 24% 30.12 in 10.0 mi Variable 3.5 mph - N/A   Clear
4:53 PM 75.9 °F 37.0 °F 24% 30.11 in 10.0 mi NW 4.6 mph 16.1 mph N/A   Clear
5:53 PM 75.0 °F 37.0 °F 25% 30.11 in 10.0 mi WNW 11.5 mph - N/A   Clear
6:34 PM 73.4 °F 39.2 °F 29% 30.12 in 10.0 mi North 15.0 mph - N/A   Clear
6:53 PM 71.1 °F 39.0 °F 31% 30.12 in 10.0 mi North 13.8 mph - N/A   Clear
7:53 PM 66.0 °F 39.9 °F 38% 30.12 in 10.0 mi NNE 10.4 mph - N/A   Clear
8:53 PM 63.0 °F 42.1 °F 46% 30.14 in 10.0 mi NNE 6.9 mph - N/A   Clear
9:53 PM 59.0 °F 42.1 °F 53% 30.16 in 10.0 mi Calm Calm - N/A   Clear
10:53 PM 57.0 °F 43.0 °F 59% 30.16 in 10.0 mi Calm Calm - N/A   Clear
11:53 PM 55.0 °F 42.1 °F 62% 30.17 in 10.0 mi Calm Calm - N/A   Clear